Terminal Aerodrome Forecast
Issued by NWS

Home | Current Version | Previous Version | Text Only | Print | Product List | Glossary On
Versions: 1 2 3 4 5 6 7 8 9 10 11 12 13 14 15 16 17 18 19 20 21 22 23 24 25 26 27 28 29 30 31 32 33 34 35
000
FTUS43 KDLH 020500
TAFHYR
TAF
KHYR 020532Z 0206/0306 21003KT 1SM BR OVC004
     FM020900 00000KT 3/4SM BR OVC003
     FM021400 VRB03KT 5SM BR BKN005
     FM021600 23004KT P6SM SCT015
     FM021800 26002KT P6SM OVC050 PROB30 0219/0224 4SM -RA BR BKN025
     FM030000 00000KT 5SM -RA BR OVC015=

USA.gov is the U.S. government's official web portal to all federal, state and local government web resources and services.